Regional Weather Roundup
Issued by NWS Bismarck, ND

Home | Current Version | Previous Version | Text Only | Print | Product List | Glossary On
Versions: 1 2 3 4 5 6 7 8 9 10 11 12 13 14 15 16 17 18 19 20 21 22 23 24 25 26 27 28 29 30 31 32 33 34 35 36 37 38 39 40 41 42 43 44 45 46 47 48 49 50
000
ASUS43 KBIS 010520
RWRBIS

NWR BROADCAST TEXT
NATIONAL WEATHER SERVICE BISMARCK ND
1100 PM CST SAT JAN 31 2015

NOTE: "FAIR" INDICATES FEW OR NO CLOUDS BELOW 12,000 FEET WITH NO
SIGNIFICANT WEATHER AND/OR OBSTRUCTIONS TO VISIBILITY.


CITY           SKY/WX    TMP DP  RH WIND       PRES   REMARKS
WILLISTON      PTCLDY    -3 -11  68 NE9       30.46S WCI -19
MINOT          CLOUDY    -8 -18  61 N12       30.48R WCI -27
MINOT AFB      MOCLDY    -8 -16  67 N10       30.49S WCI -26
BISMARCK       LGT SNOW  -3 -10  72 NE14      30.43R WCI -22
DICKINSON      LGT SNOW  -1  -7  75 NE15      30.31R WCI -21
GARRISON         N/A     -3  -9  75 N12       30.42R WCI -21
HETTINGER ARPT LGT SNOW   2  -3  80 NE13      30.28R WCI -15
JAMESTOWN      CLOUDY    -4 -13  65 N20       30.40R WCI -27
BEACH          FLURRIES   1   0  92 NE7       30.34R WCI -11
CARRINGTON     FAIR      -6 -13  71 MISG      30.45S
CROSBY         FAIR      -4 -13  65 NE5       30.49R WCI -15
HARVEY         FAIR      -8 -17  65 NE13      30.47R WCI -28
HAZEN          LGT SNOW  -2  -9  71 NE9       30.45R WCI -18
LINTON         LGT SNOW   0  -4  85 NE14G20   30.35R WCI -19
MANDAN         LGT SNOW  -2  -9  71 NE15      30.39R WCI -22
OAKES            N/A      0  -8  71 N25G31    30.36R WCI -25
RUGBY          FAIR      -9 -18  64 NE12      30.50R WCI -29
STANLEY        CLOUDY    -8 -13  77 NE7       30.42R WCI -22
TIOGA          FAIR      -8 -11  84 NE6       30.46R WCI -21
WATFORD CITY   LGT SNOW  -2  -8  78 NE9       30.42R WCI -18
$$

CITY           SKY/WX    TMP DP  RH WIND       PRES   REMARKS
GRAND FORKS    PTCLDY    -8 -16  67 N12       30.54R WCI -27
GRAND FORKS AF PTCLDY    -9 -18  63 N17       30.53R WCI -32
DEVILS LAKE    PTCLDY    -9 -20  59 NE10      30.47R WCI -28
FARGO          PTCLDY    -1 -10  65 N21       30.42R WCI -24
CANDO          CLOUDY    -9 -18  64 N14G20    30.51R WCI -31
CAVALIER       FAIR      -9 -18  64 N14       30.58R WCI -31
GWINNER        CLOUDY     1  -9  60 N24       30.36R WCI -22
ROLLA          CLOUDY   -11 -18  70 N15       30.48R WCI -34
WALHALLA         N/A     -9 -18  64 N13       30.59R WCI -30
$$

CITY           SKY/WX    TMP DP  RH WIND       PRES   REMARKS
ABERDEEN       MOCLDY     5  -5  63 N21G29    30.31R WCI -16
MOBRIDGE       CLOUDY     7  -2  66 N22       30.28R WCI -14
BUFFALO          N/A      5   1  83 NE16      30.15R WCI -14
RAPID CITY     LGT SNOW  12   9  87 NE17      30.15R FOG     WCI  -5
GLASGOW        FLURRIES   4  -1  80 N6        30.45R WCI  -7
SIDNEY         PTCLDY     1  -6  71 N8        30.47R WCI -12
WOLF POINT     CLOUDY     4  -4  69 E10       30.48R HAZE    WCI -11
GLENDIVE       MOCLDY     1  -4  78 NE12      30.38R WCI -15
MILES CITY     LGT SNOW   6   2  83 NE12      30.35R FOG     WCI  -9
BAKER          LGT SNOW   4  -1  80 NE12      30.29R WCI -12
$$

CITY           SKY/WX    TMP DP  RH WIND       PRES   REMARKS
BILLINGS       LGT SNOW  14  10  84 N8        30.29R FOG     WCI   3
GREAT FALLS    CLOUDY     7   3  84 N3        30.33S
REGINA         PTCLDY    -8 -13  77 N6        30.52R WCI -21
ESTEVAN        CLOUDY    -8 -17  65 E3        30.49R
$$



USA.gov is the U.S. government's official web portal to all federal, state and local government web resources and services.